Regional Weather Roundup
Issued by NWS

Home | Current Version | Previous Version | Text Only | Print | Product List | Glossary Off
Versions: 1 2 3 4 5 6 7 8 9 10 11 12 13 14 15 16 17 18 19 20 21 22 23 24 25 26 27 28 29 30 31 32 33 34 35 36 37 38 39 40 41 42 43 44 45 46 47 48 49 50

000
ASUS43 KLSX 300659
RWRMO

WEATHER SUMMARY FOR MISSOURI
NATIONAL WEATHER SERVICE SPRINGFIELD MO
200 AM CDT MON MAR 30 2015

NOTE: "FAIR" INDICATES FEW OR NO CLOUDS BELOW 12,000 FEET WITH NO
       SIGNIFICANT WEATHER AND/OR OBSTRUCTIONS TO VISIBILITY.
       CURRENT SKY AND/OR WEATHER CONDITIONS ARE NOT AVAILABLE FOR
       CHILLICOTHE AND FARMINGTON.

MOZ001>031-035>038-043-044-053-054-300800-
...NORTHERN AND WESTERN MISSOURI...

CITY           SKY/WX    TMP DP  RH WIND       PRES   REMARKS
KANSAS CTY INT CLEAR     46  33  60 W7        30.17R
KANSAS C DTWN  CLEAR     44  36  73 CALM      30.17R
LEE`S SUMMIT   CLEAR     44  35  70 SW6       30.18R
CHILLICOTHE      N/A     38  34  85 CALM      30.15S
KIRKSVILLE     CLEAR     37  29  72 W5        30.13R

$$
MOZ066>068-077>081-088>096-101>105-300800-
...SOUTHWEST MISSOURI...

CITY           SKY/WX    TMP DP  RH WIND       PRES   REMARKS
SPRINGFIELD    CLEAR     43  39  86 NW5       30.17R
JOPLIN         CLEAR     47  40  76 NE5       30.19S

$$
MOZ032>034-039>042-045>050-055>058-069>072-300800-
...CENTRAL MISSOURI...

CITY           SKY/WX    TMP DP  RH WIND       PRES   REMARKS
COLUMBIA       CLEAR     46  37  71 W7        30.14R
JEFFERSON CITY CLEAR     39  36  89 W3        30.15R
ROLLA          CLEAR     43  37  79 W6        30.13R
SEDALIA        CLEAR     46  36  68 W7        30.16R
OSAGE BEACH    FAIR      43  36  75 CALM      30.16R

$$
MOZ051-052-059>065-300800-
...EAST CENTRAL MISSOURI...

CITY           SKY/WX    TMP DP  RH WIND       PRES   REMARKS
ST LOUIS INTL  CLEAR     46  37  71 W7        30.12R
SPIRIT OF STL  CLEAR     43  37  79 W3        30.12R
ST CHARLES     CLEAR     44  37  76 W7        30.11R

$$
MOZ072>076-082>087-097>100-106>115-300800-
...SOUTH CENTRAL AND SOUTHEAST MISSOURI...

CITY           SKY/WX    TMP DP  RH WIND       PRES   REMARKS
CAPE GIRARDEAU CLEAR     42  42 100 W7        30.09F
FARMINGTON     CLEAR     48  37  66 NW5       30.15F
POPLAR BLUFF   CLEAR     47  42  83 NW7       30.09S
WEST PLAINS    CLEAR     50  40  68 N7        30.14S

$$


USA.gov is the U.S. government's official web portal to all federal, state and local government web resources and services.